TRANSIT 16 1 02807U 67048A 10039.46865385 .00000073 00000-0 10000-3 0 3617 2 02807 89.6619 195.6126 0018823 279.1699 80.7321 13.49729485102492 TRANSIT 17 1 02965U 67092A 10038.57282414 .00000079 00000-0 10000-3 0 6358 2 02965 89.2486 105.1152 0049967 106.2291 254.4368 13.52437189 88935 TRANSIT 18 1 03133U 68012A 10039.35084160 .00000074 00000-0 10000-3 0 4829 2 03133 89.9750 286.1700 0075720 1.9291 358.2137 13.50543954 64432 NNSS 19 1 04507U 70067A 10038.87983073 .00000069 00000-0 81537-4 0 1549 2 04507 89.8606 308.4414 0173935 121.8603 239.9594 13.50152644941486 NNSS O-20 1 06909U 73081A 10038.94523624 .00000076 00000-0 66955-4 0 5893 2 06909 89.8630 354.6328 0160010 122.5150 239.1585 13.69772542 11332 TRANSAT 1 10457U 77106A 10038.63673690 .00000072 00000-0 10000-3 0 9791 2 10457 89.6826 241.2326 0024527 316.0784 43.8403 13.48273305587690 NOVA I 1 12458U 81044A 10038.60824246 .00000050 00000-0 10000-3 0 9518 2 12458 90.0812 117.8306 0013392 207.8078 152.2339 13.22712247386966 NOVA 3 1 15362U 84110A 10039.60418396 .00000051 00000-0 10000-3 0 712 2 15362 89.9810 50.3584 0033717 72.3800 288.1003 13.22488265222357 OSCAR 30 1 15935U 85066A 10039.47728819 .00000025 00000-0 29478-4 0 5321 2 15935 90.0563 24.0773 0168116 199.1769 160.2999 13.35272086192236 OSCAR 24 1 15936U 85066B 10038.99746237 .00000182 00000-0 31717-3 0 9182 2 15936 90.0484 20.9232 0169123 203.3873 155.9516 13.35168943194297 POLAR BEAR 1 17070U 86088A 10039.12472811 .00000049 00000-0 39645-4 0 9897 2 17070 89.5339 98.2016 0036667 279.6413 80.0611 13.74351374165040 OSCAR 27 1 18361U 87080A 10038.64172795 .00000067 00000-0 10000-3 0 5909 2 18361 90.3352 241.2982 0104456 226.3891 132.8548 13.44085840 98254 OSCAR 29 1 18362U 87080B 10038.75817712 .00000067 00000-0 10000-3 0 8494 2 18362 90.3364 241.4321 0105932 237.3378 121.7514 13.43709286 98031 OSCAR 23 1 19070U 88033A 10038.62147964 .00000059 00000-0 10000-3 0 7086 2 19070 90.2554 190.7480 0191707 66.2195 295.8922 13.27113691 55064 OSCAR 32 1 19071U 88033B 10038.87780201 .00000059 00000-0 10000-3 0 4437 2 19071 90.2544 190.8360 0190135 57.3659 304.5665 13.27317890 55263 NOVA 11 1 19223U 88052A 10038.86515980 .00000051 00000-0 10000-3 0 6182 2 19223 90.0169 91.1498 0032454 114.3950 246.0583 13.22423541 44796 OSCAR 25 1 19419U 88074A 10038.52484045 .00000067 00000-0 10000-3 0 8395 2 19419 89.9201 29.5413 0095958 184.5754 175.4517 13.41817785 50391 OSCAR 31 1 19420U 88074B 10038.91529284 .00000067 00000-0 10000-3 0 5167 2 19420 89.9209 29.4750 0094419 177.8825 182.2731 13.41871788 50543